Regional Weather Roundup
Issued by NWS

Home | Current Version | Previous Version | Graphics & Text | Print | Product List | Glossary On
Versions: 1 2 3 4 5 6 7 8 9 10 11 12 13 14 15 16 17 18 19 20 21 22 23 24 25 26 27 28 29 30 31 32 33 34 35 36 37 38 39 40 41 42 43 44 45 46 47 48 49 50
000
ASUS43 KDMX 250704
RWRIA

WEATHER ROUNDUP FOR IOWA
NATIONAL WEATHER SERVICE DES MOINES IA
  ISSUED BY NWS QUAD CITIES IA IL
100 AM CST SUN JAN 25 2015

NOTE: "FAIR" INDICATES FEW OR NO CLOUDS BELOW 12,000 FEET WITH NO
SIGNIFICANT WEATHER AND/OR OBSTRUCTIONS TO VISIBILITY.

* - THESE STATIONS ARE NOT NWS STATIONS...THUS NOT UNDER NWS
QUALITY CONTROL.  THEY ALSO DO NOT REPORT WEATHER SUCH
AS PRECIPITATION OR FOG.

IAZ001>003-012>014-020>022-031>034-043>046-250800-
   NORTHWEST IOWA

CITY           SKY/WX    TMP DP  RH WIND       PRES   REMARKS
CARROLL *      CLOUDY    39  37  93 N13       29.54S WCI  32
CHEROKEE *     LGT RAIN  35  34  99 N13       29.60R WCI  26
DENNISON *     LGT RAIN  41  41 100 NW14G23   29.55R WCI  33
LE MARS *      LGT RAIN  36  34  93 N14G23    29.64R WCI  27
ORANGE CITY *  LGT SNOW  36  32  87 N9        29.63R WCI  29
SIOUX CITY     LGT RAIN  40  37  89 NW21G28   29.60R WCI  30
SPENCER        LGT RAIN  34  32  92 N10       29.60R WCI  26
$$

IAZ055>058-069>071-079>083-090>094-250800-
   SOUTHWEST IOWA

CITY           SKY/WX    TMP DP  RH WIND       PRES   REMARKS
ATLANTIC *     CLOUDY    45  41  87 NW15      29.56R WCI  38
AUDUBON *      DRIZZLE   43  37  81 NW10G16   29.56R WCI  37
CLARINDA *     MOCLDY    43  41  93 W10G17    29.60F WCI  37
COUNCIL BLFS * LGT RAIN  41  41 100 NW26G37   29.59S WCI  30
CRESTON *      CLOUDY    41  41 100 W9        29.54F WCI  35
HARLAN *       LGT RAIN  43  43 100 NW15G23   29.60S WCI  35
LAMONI         CLOUDY    43  39  86 SW10      29.56F WCI  37
$$

IAZ047>049-059>061-072>074-084-250800-
   CENTRAL IOWA

CITY           SKY/WX    TMP DP  RH WIND       PRES   REMARKS
AMES           MIX PCPN  37  35  92 N6        29.56S FOG     WCI  32
ANKENY *       LGT RAIN  39  39 100 N5        29.56S WCI  36
BOONE *        CLOUDY    39  39 100 N8        29.54S WCI  34
CHARITON *     CLOUDY    41  37  87 SW6       29.56F WCI  37
DES MOINES     LGT RAIN  41  37  86 S3        29.55F FOG
GRINNELL *     DRIZZLE   38  33  80 CALM      29.56F
KNOXVILLE *    MIX PCPN  41  37  87 SW6       29.54F WCI  37
MARSHALLTOWN   CLOUDY    36  32  85 NE3       29.54F
PELLA *        LGT RAIN  40  37  89 S3        29.57F
PERRY *        FLURRIES  39  37  93 CALM      29.54S
$$

IAZ004>006-015-016-023>025-035-036-250800-
   NORTH CENTRAL IOWA

CITY           SKY/WX    TMP DP  RH WIND       PRES   REMARKS
ALGONA *       LGT RAIN  34 N/A N/A N9        29.59R WCI  26
CLARION *      CLOUDY    34  34 100 N5        29.57S WCI  30
ESTHERVILLE    LGT SNOW  32  31  96 N13       29.60R FOG     WCI  22
FORT DODGE *   CLOUDY    36  32  87 N6        29.57S WCI  31
MASON CITY     CLOUDY    33  32  96 N5        29.58S WCI  29
WEBSTER CITY * LGT RAIN  36  36 100 N8        29.54F WCI  29
IOWA FALLS *   CLOUDY    34  32  91 CALM      29.57S
$$

IAZ007>011-017>019-026>030-037>042-050>054-066-250800-
   NORTHEAST IOWA

CITY           SKY/WX    TMP DP  RH WIND       PRES   REMARKS
CEDAR RAPIDS   CLOUDY    35  32  88 E8        29.56S WCI  29
CHARLES CITY * CLOUDY    34  34 100 NE6       29.57S WCI  29
CLINTON *      CLOUDY    34  30  86 E7        29.62F WCI  28
DECORAH *      CLOUDY    34  34 100 E8        29.59S WCI  27
DUBUQUE        CLOUDY    32  31  96 NE8       29.60R FOG     WCI  25
MONTICELLO *   CLOUDY    34  34 100 NE3       29.58F
OELWEIN *      CLOUDY    36  34  93 E8        29.57F WCI  29
WATERLOO       CLOUDY    33  32  96 NE3       29.56F
$$

IAZ064-065-067-068-078-250800-
   EAST CENTRAL IOWA

CITY           SKY/WX    TMP DP  RH WIND       PRES   REMARKS
DAVENPORT      CLOUDY    35  31  85 E6        29.59F WCI  30
IOWA CITY      CLOUDY    33  31  92 CALM      29.58F
MT. PLEASANT * DRIZZLE   39  32  77 SW6       29.59S WCI  34
MUSCATINE *    CLOUDY    34  32  93 CALM      29.58F
QUAD CITIES    CLOUDY    32  30  92 NE5       29.58F WCI  27
$$

IAZ062-063-075>077-085>089-095>099-250800-
   SOUTHEAST IOWA

CITY           SKY/WX    TMP DP  RH WIND       PRES   REMARKS
BURLINGTON     CLOUDY    40  33  76 SW6       29.58F WCI  36
FAIRFIELD *    LGT RAIN  41  36  81 W6        29.58F WCI  37
FORT MADISON * DRIZZLE   45  36  70 W5        29.59F
KEOKUK *       CLOUDY    43  34  70 SW6       29.57F WCI  39
OTTUMWA        LGT RAIN  40  37  89 SW5       29.57F WCI  37
WASHINGTON *   CLOUDY    41  34  75 W7        29.57F WCI  36
$$

ABBREVIATIONS USED IN REMARKS
   TC - TEMPERATURES IN CELSIUS
  WCI - WIND CHILL INDEX
   HX - HEAT INDEX
  VSB - VISIBILITY
$$



USA.gov is the U.S. government's official web portal to all federal, state and local government web resources and services.